EW9927 Weather Reports


Display with metric or nautical units.
time (UTC)temp
F
wind
direction
speed
MPH
gust
MPH
rain 1hr
in
rain 24hr
in
rain mn
in
humidity
%
barometer
mb
20190321194012 77 77 0.0 5.0 0.00 0.00 0.00 28 1021.1
20190321193508 77 38 0.0 5.0 0.00 0.00 0.00 27 1021.1
20190321193003 77 319 1.0 5.0 0.00 0.00 0.00 28 1021.1
20190321192459 77 274 0.0 5.0 0.00 0.00 0.00 27 1021.1
20190321191953 77 164 3.0 5.0 0.00 0.00 0.00 28 1021.4
20190321191451 75 1 1.0 5.0 0.00 0.00 0.00 28 1021.1
20190321190948 75 219 2.0 5.0 0.00 0.00 0.00 31 1021.4
20190321190441 75 354 0.0 5.0 0.00 0.00 0.00 29 1021.4
20190321185937 75 162 1.0 5.0 0.00 0.00 0.00 29 1021.8
20190321185435 75 331 1.0 5.0 0.00 0.00 0.00 32 1021.8
20190321184930 75 74 1.0 10.0 0.00 0.00 0.00 32 1021.8
20190321184425 75 278 3.0 10.0 0.00 0.00 0.00 31 1022.1
20190321183920 75 0 4.0 5.0 0.00 0.00 0.00 33 1022.1
20190321183417 75 0 1.0 5.0 0.00 0.00 0.00 35 1022.1
20190321182912 75 189 1.0 5.0 0.00 0.00 0.00 35 1022.1
20190321182408 75 92 0.0 10.0 0.00 0.00 0.00 37 1022.4
20190321181902 75 196 0.0 10.0 0.00 0.00 0.00 33 1022.4
20190321181400 74 96 0.0 5.0 0.00 0.00 0.00 37 1022.4
20190321180855 74 178 2.0 5.0 0.00 0.00 0.00 32 1022.8
20190321180350 74 129 1.0 8.0 0.00 0.00 0.00 35 1022.4
20190321175845 74 179 1.0 8.0 0.00 0.00 0.00 36 1022.8
20190321175345 73 9 3.0 8.0 0.00 0.00 0.00 39 1022.8
20190321174839 73 127 0.0 8.0 0.00 0.00 0.00 38 1022.8
20190321174334 73 142 2.0 5.0 0.00 0.00 0.00 38 1022.8
20190321173830 73 125 0.0 5.0 0.00 0.00 0.00 39 1023.1
20190321173328 72 153 0.0 5.0 0.00 0.00 0.00 37 1023.1
20190321172823 72 16 1.0 5.0 0.00 0.00 0.00 38 1023.1
20190321172317 71 53 0.0 5.0 0.00 0.00 0.00 39 1023.4
20190321171812 71 85 0.0 5.0 0.00 0.00 0.00 39 1023.4
20190321171311 71 325 0.0 5.0 0.00 0.00 0.00 39 1023.4
20190321170807 71 150 2.0 5.0 0.00 0.00 0.00 38 1023.4
20190321170301 71 146 1.0 8.0 0.00 0.00 0.00 40 1023.4
20190321165755 71 61 5.0 8.0 0.00 0.00 0.00 39 1023.4
20190321165253 72 279 0.0 8.0 0.00 0.00 0.00 38 1023.4
20190321164747 72 189 2.0 8.0 0.00 0.00 0.00 39 1023.8
20190321164243 72 172 0.0 5.0 0.00 0.00 0.00 39 1023.4
20190321163737 72 275 0.0 5.0 0.00 0.00 0.00 41 1023.8
20190321163236 71 218 0.0 5.0 0.00 0.00 0.00 38 1023.8
20190321162731 71 345 3.0 5.0 0.00 0.00 0.00 40 1023.8
20190321162227 71 139 0.0 8.0 0.00 0.00 0.00 41 1023.8
20190321161722 71 194 1.0 10.0 0.00 0.00 0.00 42 1023.8
20190321161219 70 96 0.0 10.0 0.00 0.00 0.00 42 1023.8
20190321160715 70 9 0.0 5.0 0.00 0.00 0.00 43 1023.8
20190321160210 70 197 2.0 5.0 0.00 0.00 0.00 41 1023.8
20190321155705 70 314 0.0 5.0 0.00 0.00 0.00 45 1023.8
20190321155204 70 319 2.0 5.0 0.00 0.00 0.00 44 1023.8
20190321154656 70 154 0.0 5.0 0.00 0.00 0.00 46 1023.8
20190321154152 70 326 2.0 5.0 0.00 0.00 0.00 47 1023.8
20190321153648 69 151 0.0 5.0 0.00 0.00 0.00 51 1023.8
20190321153112 69 48 2.0 5.0 0.00 0.00 0.00 53 1023.8
20190321152607 69 0 2.0 5.0 0.00 0.00 0.00 50 1023.8
20190321152103 69 4 2.0 5.0 0.00 0.00 0.00 51 1023.8
20190321151601 68 149 0.0 2.0 0.00 0.00 0.00 48 1023.8
20190321151056 68 99 0.0 2.0 0.00 0.00 0.00 51 1023.8
20190321150551 68 108 0.0 2.0 0.00 0.00 0.00 54 1023.8
20190321150046 67 73 0.0 2.0 0.00 0.00 0.00 54 1023.8
20190321145544 66 96 0.0 2.0 0.00 0.00 0.00 57 1023.4
20190321145040 66 103 0.0 2.0 0.00 0.00 0.00 59 1023.8
20190321144533 66 180 1.0 2.0 0.00 0.00 0.00 58 1023.8
20190321144028 66 103 0.0 2.0 0.00 0.00 0.00 61 1023.8
20190321143526 65 100 0.0 5.0 0.00 0.00 0.00 64 1023.8
20190321143022 65 84 1.0 2.0 0.00 0.00 0.00 66 1023.4
20190321142516 65 188 0.0 2.0 0.00 0.00 0.00 65 1023.4
20190321142012 65 82 0.0 2.0 0.00 0.00 0.00 67 1023.4
20190321141511 62 145 0.0 2.0 0.00 0.00 0.00 71 1023.4
20190321141005 62 119 0.0 2.0 0.00 0.00 0.00 78 1023.4
20190321140501 61 105 0.0 0.0 0.00 0.00 0.00 94 1023.4
20190321135955 61 84 0.0 0.0 0.00 0.00 0.00 99 1023.4
20190321135453 57 70 0.0 0.0 0.00 0.00 0.00 99 1023.4
20190321134947 57 80 0.0 0.0 0.00 0.00 0.00 99 1023.4
20190321134442 56 78 0.0 0.0 0.00 0.00 0.00 99 1023.4
20190321133939 56 78 0.0 0.0 0.00 0.00 0.00 99 1023.1
20190321133436 49 78 0.0 0.0 0.00 0.00 0.00 99 1023.1
20190321132931 47 78 0.0 0.0 0.00 0.00 0.00 99 1023.1
20190321132425 47 78 0.0 0.0 0.00 0.00 0.00 99 1022.8
20190321131922 46 78 0.0 0.0 0.00 0.00 0.00 99 1022.8
20190321131418 45 78 0.0 0.0 0.00 0.00 0.00 99 1022.8
20190321130913 44 77 0.0 0.0 0.00 0.00 0.00 99 1022.8
20190321130409 44 76 0.0 0.0 0.00 0.00 0.00 99 1022.8
20190321125904 44 100 0.0 0.0 0.00 0.00 0.00 99 1022.8
20190321125402 44 101 0.0 0.0 0.00 0.00 0.00 99 1022.8
20190321124858 44 101 0.0 0.0 0.00 0.00 0.00 99 1022.8
20190321124353 44 97 0.0 0.0 0.00 0.00 0.00 99 1022.8
20190321123848 44 98 0.0 0.0 0.00 0.00 0.00 99 1022.4
20190321123346 45 97 0.0 0.0 0.00 0.00 0.00 99 1022.4
20190321122840 45 116 0.0 0.0 0.00 0.00 0.00 99 1022.4
20190321122335 45 75 0.0 0.0 0.00 0.00 0.00 99 1022.4
20190321121830 45 75 0.0 0.0 0.00 0.00 0.00 99 1022.4
20190321121328 44 102 0.0 0.0 0.00 0.00 0.00 99 1022.4
20190321120824 45 141 0.0 0.0 0.00 0.00 0.00 99 1022.4
20190321120320 45 142 0.0 0.0 0.00 0.00 0.00 99 1022.4
20190321115813 45 142 0.0 0.0 0.00 0.00 0.00 99 1022.4
20190321115312 46 142 0.0 0.0 0.00 0.00 0.00 99 1022.4
20190321114806 46 166 0.0 0.0 0.00 0.00 0.00 99 1022.4
20190321114301 46 121 0.0 0.0 0.00 0.00 0.00 99 1022.4
20190321113756 46 122 0.0 0.0 0.00 0.00 0.00 99 1022.4
20190321113255 47 122 0.0 0.0 0.00 0.00 0.00 99 1022.4
20190321112749 47 68 0.0 0.0 0.00 0.00 0.00 99 1022.4
20190321112245 47 67 0.0 0.0 0.00 0.00 0.00 99 1022.4
20190321111741 47 73 0.0 0.0 0.00 0.00 0.00 99 1022.4
20190321111238 47 92 0.0 0.0 0.00 0.00 0.00 99 1022.4
20190321110733 47 135 0.0 0.0 0.00 0.00 0.00 99 1022.4
20190321110228 47 93 0.0 0.0 0.00 0.00 0.00 99 1022.4
20190321105722 47 91 0.0 0.0 0.00 0.00 0.00 99 1022.4
20190321105221 48 41 0.0 0.0 0.00 0.00 0.00 99 1022.1
20190321104717 48 41 0.0 0.0 0.00 0.00 0.00 99 1022.1
20190321104212 48 41 0.0 0.0 0.00 0.00 0.00 99 1022.4
20190321103706 49 40 0.0 0.0 0.00 0.00 0.00 99 1022.4
20190321103204 49 40 0.0 0.0 0.00 0.00 0.00 99 1022.1
20190321102659 49 17 0.0 0.0 0.00 0.00 0.00 99 1022.1
20190321102154 49 66 0.0 0.0 0.00 0.00 0.00 99 1022.1
20190321101649 49 72 0.0 0.0 0.00 0.00 0.00 99 1022.1
20190321101147 49 127 0.0 0.0 0.00 0.00 0.00 99 1022.1
20190321100642 49 164 0.0 0.0 0.00 0.00 0.00 99 1022.1
20190321100138 49 163 0.0 0.0 0.00 0.00 0.00 99 1022.1
20190321095633 49 127 0.0 0.0 0.00 0.00 0.00 99 1022.1
20190321095130 49 62 0.0 0.0 0.00 0.00 0.00 99 1022.1
20190321094625 49 72 0.0 0.0 0.00 0.00 0.00 99 1022.1
20190321094120 49 46 0.0 0.0 0.00 0.00 0.00 99 1022.1
20190321093615 49 101 0.0 0.0 0.00 0.00 0.00 99 1022.1
20190321093114 50 68 0.0 0.0 0.00 0.00 0.00 99 1021.8
20190321092608 50 133 0.0 0.0 0.00 0.00 0.00 99 1022.1
20190321092103 50 137 0.0 0.0 0.00 0.00 0.00 99 1022.1
20190321091600 51 138 0.0 0.0 0.00 0.00 0.00 98 1022.1
20190321091056 51 138 0.0 0.0 0.00 0.00 0.00 97 1022.1
20190321090551 51 122 0.0 0.0 0.00 0.00 0.00 96 1022.1
20190321090047 51 129 0.0 0.0 0.00 0.00 0.00 92 1022.1
20190321085541 51 113 0.0 0.0 0.00 0.00 0.00 92 1022.1
20190321085039 53 113 0.0 0.0 0.00 0.00 0.00 89 1022.1
20190321084536 54 78 0.0 0.0 0.00 0.00 0.00 87 1022.1
20190321084030 54 32 0.0 0.0 0.00 0.00 0.00 86 1022.1
20190321083525 54 32 0.0 0.0 0.00 0.00 0.00 86 1022.4
20190321083023 55 29 0.0 0.0 0.00 0.00 0.00 86 1022.4
20190321082518 55 54 0.0 0.0 0.00 0.00 0.00 85 1022.1
20190321082013 55 80 0.0 0.0 0.00 0.00 0.00 84 1022.1
20190321081508 55 70 0.0 0.0 0.00 0.00 0.00 84 1022.4
20190321081006 55 25 0.0 0.0 0.00 0.00 0.00 87 1022.4
20190321080501 55 33 0.0 0.0 0.00 0.00 0.00 89 1022.4
20190321075957 55 55 0.0 0.0 0.00 0.00 0.00 88 1022.4
20190321075450 55 139 0.0 0.0 0.00 0.00 0.00 87 1022.8
20190321074948 56 56 0.0 0.0 0.00 0.00 0.00 85 1022.8
20190321074443 57 144 0.0 0.0 0.00 0.00 0.00 82 1022.8
20190321073938 57 75 0.0 0.0 0.00 0.00 0.00 81 1022.4
20190321073433 57 101 0.0 0.0 0.00 0.00 0.00 78 1022.8
20190321072933 58 46 0.0 2.0 0.00 0.00 0.00 77 1022.8
20190321072427 59 97 0.0 2.0 0.00 0.00 0.00 75 1022.8
20190321071922 59 34 0.0 2.0 0.00 0.00 0.00 75 1022.8
20190321071419 59 331 1.0 2.0 0.00 0.00 0.00 75 1022.8
20190321070843 58 94 0.0 5.0 0.00 0.00 0.00 75 1022.8
20190321070337 58 319 1.0 5.0 0.00 0.00 0.00 77 1022.8
20190321065833 58 348 0.0 2.0 0.00 0.00 0.00 77 1022.8
20190321065330 59 44 0.0 2.0 0.00 0.00 0.00 76 1022.8
20190321064825 59 331 1.0 8.0 0.00 0.00 0.00 76 1022.8
20190321064321 59 332 0.0 8.0 0.00 0.00 0.00 76 1022.8
20190321063816 59 71 0.0 2.0 0.00 0.00 0.00 76 1022.8
20190321063314 60 357 0.0 2.0 0.00 0.00 0.00 78 1022.4
20190321062811 60 353 0.0 2.0 0.00 0.00 0.00 78 1022.8
20190321062305 60 325 0.0 2.0 0.00 0.00 0.00 78 1022.4
20190321061800 60 144 0.0 2.0 0.00 0.00 0.00 77 1022.4
20190321061257 60 208 1.0 2.0 0.00 0.00 0.00 77 1022.4
20190321060752 60 145 0.0 2.0 0.00 0.00 0.00 77 1022.4
20190321060247 60 275 0.0 2.0 0.00 0.00 0.00 76 1022.4
20190321055741 60 27 0.0 2.0 0.00 0.00 0.00 76 1022.4
20190321055240 61 83 0.0 0.0 0.00 0.00 0.00 76 1022.4
20190321054735 61 153 0.0 0.0 0.00 0.00 0.00 74 1022.4
20190321054230 61 167 0.0 0.0 0.00 0.00 0.00 73 1022.4
20190321053724 61 142 0.0 0.0 0.00 0.00 0.00 72 1022.4
20190321053222 61 97 0.0 0.0 0.00 0.00 0.00 72 1022.4
20190321052717 61 171 0.0 0.0 0.00 0.00 0.00 71 1022.4
20190321052213 61 94 0.0 0.0 0.00 0.00 0.00 70 1022.4
20190321051708 61 34 0.0 0.0 0.00 0.00 0.00 70 1022.4
20190321051207 61 115 0.0 0.0 0.00 0.00 0.00 69 1022.4
20190321050701 61 15 0.0 2.0 0.00 0.00 0.00 69 1022.4
20190321050156 61 166 0.0 2.0 0.00 0.00 0.00 69 1022.4
20190321045653 61 165 0.0 0.0 0.00 0.00 0.00 69 1022.4
20190321045150 62 139 0.0 0.0 0.00 0.00 0.00 68 1022.4
20190321044644 62 138 0.0 2.0 0.00 0.00 0.00 68 1022.4
20190321044139 62 166 0.0 2.0 0.00 0.00 0.00 68 1022.4
20190321043634 62 134 0.0 2.0 0.00 0.00 0.00 68 1022.4
20190321043132 60 185 0.0 2.0 0.00 0.00 0.00 68 1022.4
20190321042628 60 168 0.0 2.0 0.00 0.00 0.00 69 1022.4
20190321042122 60 138 0.0 2.0 0.00 0.00 0.00 69 1022.4
20190321041617 60 123 0.0 2.0 0.00 0.00 0.00 72 1022.4
20190321041115 60 144 0.0 0.0 0.00 0.00 0.00 74 1022.1
20190321040611 60 168 0.0 0.0 0.00 0.00 0.00 73 1022.4
20190321040114 60 105 0.0 0.0 0.00 0.00 0.00 73 1022.4
20190321035601 60 177 0.0 2.0 0.00 0.00 0.00 73 1022.1
20190321035058 60 179 0.0 2.0 0.00 0.00 0.00 74 1022.4
20190321034553 59 173 0.0 2.0 0.00 0.00 0.00 76 1022.1
20190321034049 59 130 0.0 5.0 0.00 0.00 0.00 76 1022.1
20190321033544 59 123 0.0 5.0 0.00 0.00 0.00 76 1022.1
20190321033042 55 196 3.0 5.0 0.00 0.00 0.00 79 1022.1
20190321032537 55 162 0.0 2.0 0.00 0.00 0.00 85 1021.8
20190321032032 55 138 0.0 2.0 0.00 0.00 0.00 87 1021.8
20190321031526 55 138 0.0 2.0 0.00 0.00 0.00 89 1021.8
20190321031025 54 163 0.0 0.0 0.00 0.00 0.00 87 1021.8
20190321030519 54 42 0.0 0.0 0.00 0.00 0.00 86 1021.8
20190321030014 54 25 0.0 0.0 0.00 0.00 0.00 87 1021.4
20190321025511 54 127 0.0 0.0 0.00 0.00 0.00 88 1021.4
20190321025007 55 127 0.0 0.0 0.00 0.00 0.00 87 1021.4
20190321024503 56 127 0.0 0.0 0.00 0.00 0.00 86 1021.1
20190321023957 56 122 0.0 0.0 0.00 0.00 0.00 86 1021.1
20190321023453 56 121 0.0 0.0 0.00 0.00 0.00 86 1021.1
20190321022952 57 116 0.0 0.0 0.00 0.00 0.00 85 1021.1
20190321022448 57 111 0.0 0.0 0.00 0.00 0.00 83 1021.1
20190321021940 57 125 0.0 0.0 0.00 0.00 0.00 81 1021.1
20190321021436 57 126 0.0 0.0 0.00 0.00 0.00 80 1021.1
20190321020934 58 126 0.0 0.0 0.00 0.00 0.00 80 1021.1
20190321020429 58 126 0.0 0.0 0.00 0.00 0.00 79 1021.1
20190321015924 58 126 0.0 0.0 0.00 0.00 0.00 78 1021.1
20190321015419 58 110 0.0 0.0 0.00 0.00 0.00 77 1021.1
20190321014917 60 90 0.0 0.0 0.00 0.00 0.00 75 1021.1
20190321014412 60 118 0.0 0.0 0.00 0.00 0.00 73 1020.7
20190321013908 60 118 0.0 0.0 0.00 0.00 0.00 73 1020.7
20190321013401 60 136 0.0 0.0 0.00 0.00 0.00 71 1020.7
20190321012900 62 134 0.0 0.0 0.00 0.00 0.00 68 1020.7
20190321012355 62 127 0.0 0.0 0.00 0.00 0.00 68 1020.7
20190321011850 62 336 0.0 0.0 0.00 0.00 0.00 67 1020.7
20190321011346 62 335 0.0 0.0 0.00 0.00 0.00 66 1020.7
20190321010852 64 335 0.0 0.0 0.00 0.00 0.00 63 1020.7
20190321010338 65 335 0.0 0.0 0.00 0.00 0.00 63 1020.7
20190321005834 65 335 0.0 0.0 0.00 0.00 0.00 60 1020.7
20190321005330 65 335 0.0 0.0 0.00 0.00 0.00 58 1020.7
20190321004826 67 335 0.0 0.0 0.00 0.00 0.00 56 1020.4
20190321004321 68 74 0.0 0.0 0.00 0.00 0.00 53 1020.4
20190321003816 68 165 0.0 2.0 0.00 0.00 0.00 51 1020.4
20190321003311 68 8 0.0 2.0 0.00 0.00 0.00 49 1020.4
20190321002809 70 10 0.0 2.0 0.00 0.00 0.00 49 1020.4
20190321002305 70 6 0.0 2.0 0.00 0.00 0.00 47 1020.1
20190321001800 70 355 0.0 5.0 0.00 0.00 0.00 47 1020.4
20190321001254 71 11 0.0 5.0 0.00 0.00 0.00 46 1020.1
20190321000754 73 143 0.0 5.0 0.00 0.00 0.00 46 1020.1
20190321000247 74 6 0.0 8.0 0.00 0.00 0.00 45 1020.1
20190320235743 74 24 0.0 8.0 0.00 0.00 0.00 43 1020.1
20190320235238 74 144 0.0 2.0 0.00 0.00 0.00 40 1020.1
20190320234756 74 168 0.0 2.0 0.00 0.00 0.00 39 1020.1
20190320234230 75 303 1.0 8.0 0.00 0.00 0.00 40 1020.1
20190320233726 75 146 1.0 8.0 0.00 0.00 0.00 40 1020.1
20190320233221 75 332 0.0 10.0 0.00 0.00 0.00 39 1020.1
20190320232718 75 129 1.0 10.0 0.00 0.00 0.00 41 1020.1
20190320232213 75 321 0.0 8.0 0.00 0.00 0.00 40 1020.1
20190320231709 75 157 0.0 8.0 0.00 0.00 0.00 38 1020.1
20190320231204 75 177 4.0 8.0 0.00 0.00 0.00 37 1020.1
20190320230702 76 179 0.0 8.0 0.00 0.00 0.00 38 1019.7
20190320230157 77 2 1.0 8.0 0.00 0.00 0.00 37 1019.7
20190320225651 77 159 0.0 8.0 0.00 0.00 0.00 37 1020.1
20190320225149 77 210 1.0 5.0 0.00 0.00 0.00 36 1019.7
20190320224611 76 174 0.0 5.0 0.00 0.00 0.00 36 1019.7
20190320224107 75 174 0.0 2.0 0.00 0.00 0.00 36 1020.1
20190320223604 75 170 0.0 5.0 0.00 0.00 0.00 38 1019.7
20190320223101 75 305 0.0 10.0 0.00 0.00 0.00 39 1020.1
20190320222556 75 329 5.0 10.0 0.00 0.00 0.00 39 1020.1
20190320222051 75 321 1.0 10.0 0.00 0.00 0.00 39 1020.1
20190320221545 75 315 4.0 10.0 0.00 0.00 0.00 39 1020.1
20190320221043 77 17 0.0 10.0 0.00 0.00 0.00 39 1020.1
20190320220539 78 2 2.0 8.0 0.00 0.00 0.00 38 1020.1
20190320220033 78 83 0.0 5.0 0.00 0.00 0.00 35 1020.1
20190320215528 78 148 1.0 5.0 0.00 0.00 0.00 35 1020.1
20190320215027 78 127 1.0 5.0 0.00 0.00 0.00 35 1020.1
20190320214522 78 156 2.0 8.0 0.00 0.00 0.00 32 1020.1
20190320214017 78 176 0.0 13.0 0.00 0.00 0.00 36 1020.1
20190320213512 79 26 3.0 13.0 0.00 0.00 0.00 36 1020.1
20190320213009 78 359 0.0 5.0 0.00 0.00 0.00 35 1020.1
20190320212505 78 11 2.0 5.0 0.00 0.00 0.00 35 1020.4
20190320212001 77 339 1.0 8.0 0.00 0.00 0.00 34 1020.4
20190320211455 77 186 6.0 8.0 0.00 0.00 0.00 36 1020.4
20190320210953 78 252 1.0 10.0 0.00 0.00 0.00 33 1020.4
20190320210448 78 226 2.0 10.0 0.00 0.00 0.00 36 1020.4
20190320205943 78 105 0.0 8.0 0.00 0.00 0.00 36 1020.4
20190320205438 79 302 2.0 5.0 0.00 0.00 0.00 35 1020.7
20190320204937 77 75 0.0 5.0 0.00 0.00 0.00 36 1020.4
20190320204431 77 13 3.0 5.0 0.00 0.00 0.00 35 1020.4
20190320203926 77 204 0.0 5.0 0.00 0.00 0.00 36 1020.7
20190320203422 77 86 0.0 5.0 0.00 0.00 0.00 35 1020.7
20190320202920 78 208 0.0 8.0 0.00 0.00 0.00 32 1020.7
20190320202414 78 13 0.0 8.0 0.00 0.00 0.00 33 1020.7
20190320201909 78 242 2.0 8.0 0.00 0.00 0.00 33 1020.7
20190320201405 78 346 4.0 8.0 0.00 0.00 0.00 33 1020.7
20190320200902 76 195 2.0 5.0 0.00 0.00 0.00 36 1021.1
20190320200358 77 293 0.0 5.0 0.00 0.00 0.00 37 1021.1
20190320195852 77 44 3.0 5.0 0.00 0.00 0.00 34 1021.1
20190320195347 77 180 0.0 8.0 0.00 0.00 0.00 36 1021.1
20190320194845 76 140 0.0 8.0 0.00 0.00 0.00 35 1021.1
20190320194340 76 1 1.0 8.0 0.00 0.00 0.00 34 1021.4